GW4788 Weather Reports


time (UTC)temp
C
wind
direction
speed
KPH
gust
KPH
rain 1hr
cm
rain 24hr
cm
rain mn
cm
humidity
%
barometer
mb
20260507010517 11 238 0.0 3.2 0.00 3.00 1.40 64 1013.2
20260507005517 11 254 0.0 3.2 0.00 3.00 1.40 63 1013.0
20260507004540 11 235 0.0 1.6 0.00 3.02 1.40 63 1012.9
20260507003520 11 227 0.0 3.2 0.00 3.02 1.40 62 1012.8
20260507002537 11 217 1.6 1.6 0.00 3.07 1.40 63 1012.7
20260507001557 11 208 1.6 3.2 0.00 3.07 1.40 62 1012.6
20260507000521 12 220 1.6 3.2 0.00 3.07 1.40 62 1012.5
20260506235540 12 212 0.0 1.6 0.00 3.07 1.40 61 1012.5
20260506234518 12 282 1.6 3.2 0.00 3.10 1.40 60 1012.5
20260506233518 12 187 0.0 3.2 0.00 3.17 1.40 60 1012.3
20260506232558 12 14 1.6 6.4 0.00 3.20 1.40 60 1012.4
20260506231558 12 270 1.6 3.2 0.00 3.20 1.40 59 1012.6
20260506230518 12 228 1.6 8.0 0.00 3.23 1.40 59 1012.7
20260506225518 12 260 1.6 3.2 0.00 3.25 1.40 61 1012.7
20260506224539 12 35 1.6 4.8 0.00 3.25 1.40 60 1012.7
20260506223519 12 212 1.6 3.2 0.00 3.25 1.40 59 1012.9
20260506222518 12 300 1.6 4.8 0.00 3.28 1.40 59 1012.9
20260506221539 13 210 1.6 3.2 0.00 3.35 1.40 59 1012.9
20260506220539 13 40 1.6 4.8 0.00 3.43 1.40 58 1012.4
20260506215519 13 26 1.6 6.4 0.00 3.53 1.40 57 1012.3
20260506214539 13 294 1.6 4.8 0.00 3.63 1.40 58 1012.2
20260506213519 13 18 3.2 12.9 0.00 3.81 1.40 57 1012.0
20260506212519 13 11 1.6 4.8 0.00 3.96 1.40 60 1012.0
20260506211540 13 27 1.6 6.4 0.00 4.47 1.40 59 1012.0
20260506210517 13 19 1.6 3.2 0.00 4.95 1.40 58 1011.9
20260506205516 13 292 1.6 6.4 0.00 4.95 1.40 59 1012.0
20260506204517 13 8 1.6 4.8 0.00 4.95 1.40 59 1011.9
20260506203541 13 314 1.6 3.2 0.00 4.95 1.40 59 1012.0
20260506202520 13 313 1.6 4.8 0.00 4.95 1.40 57 1011.7
20260506201518 13 357 1.6 8.0 0.00 4.95 1.40 59 1011.5
20260506200517 13 13 1.6 6.4 0.00 4.95 1.40 58 1011.8
20260506195520 13 358 1.6 4.8 0.00 4.95 1.40 57 1011.8
20260506194520 14 329 1.6 4.8 0.00 4.95 1.40 59 1011.6
20260506193518 14 13 1.6 8.0 0.00 4.95 1.40 59 1011.7
20260506192538 14 343 1.6 9.7 0.00 4.95 1.40 60 1011.7
20260506191538 14 12 1.6 8.0 0.00 4.95 1.40 59 1011.6
20260506190518 15 28 3.2 9.7 0.00 4.95 1.40 57 1011.5
20260506185521 15 39 1.6 4.8 0.00 4.95 1.40 57 1011.2
20260506184558 14 1 3.2 9.7 0.00 4.95 1.40 56 1011.3
20260506183538 14 6 3.2 11.3 0.00 4.95 1.40 56 1011.4
20260506182518 15 5 3.2 12.9 0.00 4.95 1.40 55 1011.6
20260506181538 15 338 1.6 4.8 0.00 4.95 1.40 56 1011.5
20260506180619 15 16 3.2 4.8 0.00 4.95 1.40 58 1011.6
20260506175519 15 21 1.6 4.8 0.00 4.95 1.40 57 1011.5
20260506174519 15 319 3.2 9.7 0.00 4.95 1.40 59 1011.6
20260506173529 15 31 3.2 8.0 0.00 4.95 1.40 60 1011.6
20260506172529 15 15 3.2 4.8 0.00 4.95 1.40 58 1011.6
20260506171539 14 15 3.2 9.7 0.00 4.95 1.40 59 1011.4
20260506170519 14 6 3.2 17.7 0.00 4.95 1.40 59 1011.4
20260506165529 14 62 1.6 4.8 0.00 4.95 1.40 64 1011.4
20260506164529 13 334 1.6 4.8 0.00 4.95 1.40 65 1011.5
20260506163530 13 1 1.6 6.4 0.00 4.95 1.40 63 1011.5
20260506162530 13 349 1.6 4.8 0.00 4.95 1.40 65 1011.6
20260506161530 13 345 1.6 3.2 0.00 4.95 1.40 65 1011.5
20260506160530 12 355 1.6 4.8 0.00 4.95 1.40 69 1011.3
20260506155530 11 31 3.2 6.4 0.00 4.95 1.40 68 1011.3
20260506154517 11 13 1.6 3.2 0.00 4.95 1.40 68 1011.2
20260506153517 11 328 1.6 3.2 0.00 4.95 1.40 72 1011.1
20260506152537 11 52 1.6 3.2 0.00 4.95 1.40 71 1011.0
20260506151517 11 8 1.6 4.8 0.00 4.95 1.40 74 1010.9
20260506150531 10 12 1.6 3.2 0.00 4.95 1.40 75 1010.6
20260506145530 10 36 3.2 6.4 0.00 4.95 1.40 77 1010.8
20260506144551 10 57 3.2 4.8 0.00 4.95 1.40 80 1010.9
20260506143518 9 15 3.2 6.4 0.00 4.95 1.40 83 1011.1
20260506142538 9 63 3.2 4.8 0.00 4.95 1.40 83 1010.6
20260506141518 9 39 3.2 6.4 0.00 4.95 1.40 85 1010.6
20260506140518 8 2 3.2 4.8 0.00 4.95 1.40 89 1010.4
20260506135519 8 14 3.2 4.8 0.00 4.95 1.40 88 1010.2
20260506134518 8 15 3.2 6.4 0.00 4.95 1.40 88 1010.4
20260506133520 8 23 3.2 6.4 0.00 4.95 1.40 89 1010.1
20260506132518 7 360 3.2 4.8 0.00 4.95 1.40 92 1009.9
20260506131518 7 29 3.2 6.4 0.00 4.95 1.40 96 1009.9
20260506130519 7 329 1.6 4.8 0.00 4.95 1.40 96 1010.1
20260506125520 7 323 1.6 4.8 0.00 4.95 1.40 97 1010.1
20260506124519 7 301 1.6 1.6 0.00 4.95 1.40 98 1009.9
20260506123519 7 323 1.6 3.2 0.00 4.95 1.40 99 1009.6
20260506122519 7 330 1.6 3.2 0.00 4.95 1.40 100 1009.0
20260506121520 7 338 1.6 3.2 0.00 4.95 1.40 100 1008.9
20260506120519 7 336 1.6 3.2 0.00 4.95 1.40 100 1008.9
20260506115540 7 299 1.6 3.2 0.00 4.95 1.40 100 1009.1
20260506114520 7 324 1.6 1.6 0.00 4.95 1.40 100 1009.1
20260506113519 7 320 1.6 4.8 0.00 4.95 1.40 100 1009.1
20260506112520 7 279 1.6 3.2 0.00 4.95 1.40 100 1008.8
20260506111521 7 320 1.6 4.8 0.00 4.95 1.40 100 1007.8
20260506110520 7 336 1.6 3.2 0.00 4.95 1.40 100 1007.8
20260506105523 7 5 3.2 9.7 0.00 4.95 1.40 100 1008.1
20260506104520 7 5 0.0 1.6 0.03 4.95 1.40 100 1007.8
20260506103521 7 6 1.6 4.8 0.03 4.95 1.40 100 1008.1
20260506102521 7 349 1.6 3.2 0.03 4.95 1.40 100 1008.0
20260506101521 7 352 1.6 4.8 0.03 4.95 1.40 100 1007.7
20260506100521 7 353 1.6 1.6 0.03 4.95 1.40 100 1007.0
20260506095521 7 2 1.6 3.2 0.03 4.95 1.40 100 1006.9
20260506094521 7 322 1.6 1.6 0.03 4.93 1.37 100 1007.1
20260506093541 7 349 1.6 3.2 0.10 4.93 1.37 100 1006.6
20260506092522 7 26 1.6 3.2 0.18 4.93 1.37 100 1006.9
20260506091522 7 341 1.6 4.8 0.28 4.93 1.37 100 1007.2
20260506090521 7 319 1.6 3.2 0.38 4.93 1.37 100 1006.8
20260506085521 7 3 1.6 3.2 0.38 4.90 1.37 100 1006.7
20260506084542 7 10 1.6 4.8 0.38 4.88 1.35 100 1007.1
20260506083522 7 310 1.6 3.2 0.33 4.83 1.27 100 1007.2
20260506082522 7 291 1.6 4.8 0.23 4.72 1.19 100 1007.0
20260506081522 7 35 3.2 6.4 0.15 4.62 1.09 99 1006.9
20260506080522 7 324 1.6 3.2 0.10 4.55 0.99 99 1006.9
20260506073519 7 2 3.2 11.3 0.30 4.50 0.97 99 1006.4
20260506072519 7 333 4.8 8.0 0.41 4.50 0.97 99 1006.4
20260506071522 8 356 4.8 8.0 0.51 4.50 0.97 99 1006.5
20260506070521 8 332 1.6 6.4 0.56 4.42 0.89 99 1006.4
20260506061523 9 350 3.2 4.8 0.41 3.99 0.43 99 1006.7
20260506060523 9 10 1.6 4.8 0.33 3.89 0.33 99 1006.7
20260506050524 9 14 3.2 6.4 0.03 3.56 0.03 99 1006.6
20260506044524 10 7 1.6 3.2 0.00 3.53 0.00 99 1006.9
20260506043524 10 20 1.6 4.8 0.03 3.53 0.00 99 1006.8
20260506042525 10 42 0.0 1.6 0.08 3.53 0.00 99 1006.9
20260506041524 10 12 1.6 4.8 0.20 3.53 0.00 99 1007.0
20260506040525 10 8 1.6 4.8 0.46 3.53 0.00 99 1006.9
20260506035525 10 10 1.6 4.8 0.64 3.53 3.53 99 1007.2
20260506034519 10 3 1.6 4.8 0.71 3.53 3.53 99 1007.3
20260506033520 10 0 1.6 8.0 0.71 3.53 3.53 98 1007.4
20260506032519 11 6 1.6 8.0 0.74 3.48 3.48 98 1007.6
20260506031519 11 360 1.6 4.8 0.69 3.35 3.35 97 1007.7
20260506030520 12 280 1.6 4.8 0.53 3.10 3.10 97 1007.9
20260506025517 13 98 1.6 6.4 0.48 2.92 2.92 97 1007.7
20260506024537 15 240 3.2 8.0 0.51 2.82 2.82 98 1007.3
20260506023518 15 249 1.6 6.4 0.61 2.82 2.82 99 1007.2
20260506022520 15 214 1.6 6.4 0.61 2.74 2.74 99 1007.2
20260506021521 15 174 0.0 1.6 0.66 2.67 2.67 99 1007.2
20260506020517 15 204 1.6 3.2 0.61 2.57 2.57 98 1007.3
20260506015517 15 154 0.0 3.2 0.51 2.44 2.44 98 1007.3
20260506014517 15 185 0.0 3.2 0.38 2.31 2.31 98 1007.2
20260506013518 15 281 0.0 3.2 0.28 2.18 2.18 98 1007.1
20260506012541 15 205 0.0 1.6 0.25 2.13 2.13 98 1007.0
20260506011518 15 214 1.6 3.2 0.15 2.01 2.01 98 1006.8